TELSTAR 14R

Last updated on Thu Jul 03 2025 00:02:45 GMT+0000 (Coordinated Universal Time)

1 37602U 11021A 25183.23372725 -.00000273 00000+0 00000+0 0 9994 2 37602 0.0303 80.5665 0002609 350.4140 230.6734 1.00270746 52324
UTC large
Height (km)
Speed (km/s)
/
Latitude / Longitude
Inclination (degrees)
Orbital Period (minutes)
Azimuth
Elevation
Range (km)
Doppler Factor

Next 0 passes for location: London (51.5072 / 0.1276)

Sorry there are no passes over London.